San Diego, CA

1:23 AM PDT on April 23, 2017 (GMT -0700)
San Diego International-Lindbergh

Weather History for KSAN - February, 2014

Change the Weather History Date:

Sunday, February 23, 2014

  Actual Average Record
Temperature  
Mean Temperature 60 °F 58 °F  
Max Temperature 70 °F 65 °F 85 °F (1954)
Min Temperature 49 °F 51 °F 38 °F (1887)
Degree Days  
Heating Degree Days 5 7  
Month to date heating degree days 91 167  
Since 1 July heating degree days 446 822  
Cooling Degree Days 0 0  
Month to date cooling degree days 2 0  
Year to date cooling degree days 9 2  
Growing Degree Days 9 (Base 50)    
Moisture  
Dew Point 50 °F    
Average Humidity 69    
Maximum Humidity 89    
Minimum Humidity 49    
Precipitation  
Precipitation 0.00 in 0.09 in 1.15 in (1855)
Month to date precipitation 0.35 1.87  
Year to date precipitation 0.36 3.85  
Since 1 July precipitation 2.60  
Snow  
Snow 0.00 in - - ()
Month to date snowfall 0.0  
Year to date snowfall 0.0  
Snow Depth 0.00 in    
Sea Level Pressure  
Sea Level Pressure 29.97 in    
Wind  
Wind Speed 2 mph (WSW)    
Max Wind Speed 9 mph    
Max Gust Speed 12 mph    
Visibility 6 miles    
Events Fog    
T = Trace of Precipitation, MM = Missing Value Source: NWS Daily Summary

Daily Weather History Graph

Daily Weather History Graph

Search for Another Location

Airport or City:

Trip Planner

Search our weather history database for the weather conditions in past years. The results will help you decide how hot, cold, wet, or windy it might be!

Date:

Astronomy

Feb. 23, 2014 Rise Set
Actual Time 6:23 AM PST 5:41 PM PST
Civil Twilight 5:58 AM PST 6:06 PM PST
Nautical Twilight 5:29 AM PST 6:34 PM PST
Astronomical Twilight 5:01 AM PST 7:03 PM PST
Moon 1:16 AM PST 11:57 AM PST
Length of Visible Light 12h 07m
Length of Day
11h 17m
Last Quarter, 38% of the Moon is Illuminated
Feb 23
Last Quarter
Mar 1
New
Mar 8
First Quarter
Mar 16
Full
Mar 23
Last Quarter

Hourly Weather History & Observations

Time (PST) Temp. Dew Point Humidity Pressure Visibility Wind Dir Wind Speed Gust Speed Precip Events Conditions
12:51 AM 55.9 °F 51.1 °F 84% 29.95 in 5.0 mi NNW 3.5 mph - N/A   Scattered Clouds
1:24 AM 55.4 °F 50.0 °F 82% 29.95 in 4.0 mi NNW 3.5 mph - N/A   Mostly Cloudy
1:29 AM 55.4 °F 50.0 °F 82% 29.95 in 2.0 mi NNW 3.5 mph - N/A   Mostly Cloudy
1:33 AM 55.4 °F 51.8 °F 88% 29.95 in 1.0 mi NW 3.5 mph - N/A   Mostly Cloudy
1:36 AM 55.4 °F 51.8 °F 88% 29.95 in 0.8 mi NW 3.5 mph - N/A   Overcast
1:47 AM 55.4 °F 51.8 °F 88% 29.94 in 1.0 mi Calm Calm - N/A   Mostly Cloudy
1:51 AM 55.0 °F 52.0 °F 89% 29.94 in 2.0 mi Calm Calm - N/A   Mostly Cloudy
2:03 AM 55.4 °F 48.2 °F 77% 29.94 in 3.0 mi North 3.5 mph - N/A   Mostly Cloudy
2:25 AM 55.4 °F 46.4 °F 72% 29.94 in 3.0 mi North 4.6 mph - N/A   Overcast
2:51 AM 55.0 °F 45.0 °F 69% 29.94 in 3.0 mi Calm Calm - N/A   Overcast
3:14 AM 55.4 °F 46.4 °F 72% 29.94 in 2.0 mi Calm Calm - N/A   Overcast
3:25 AM 55.4 °F 48.2 °F 77% 29.94 in 1.5 mi Calm Calm - N/A   Overcast
3:32 AM 53.6 °F 48.2 °F 82% 29.94 in 1.0 mi Calm Calm - N/A   Overcast
3:51 AM 54.0 °F 48.9 °F 83% 29.94 in 1.0 mi Calm Calm - N/A   Mist
4:34 AM 53.6 °F 46.4 °F 77% 29.94 in 1.0 mi Calm Calm - N/A   Overcast
4:51 AM 54.0 °F 46.0 °F 75% 29.95 in 1.0 mi Calm Calm - N/A   Overcast
5:27 AM 53.6 °F 48.2 °F 82% 29.96 in 0.5 mi Calm Calm - N/A Fog Fog
5:51 AM 53.1 °F 50.0 °F 89% 29.96 in 0.5 mi Calm Calm - N/A Fog Fog
5:58 AM 53.6 °F 50.0 °F 88% 29.96 in 0.2 mi Calm Calm - N/A Fog Fog
6:39 AM 51.8 °F 48.2 °F 88% 29.98 in 0.5 mi Calm Calm - N/A Fog Fog
6:48 AM 51.8 °F 48.2 °F 88% 29.98 in 1.0 mi Calm Calm - N/A   Mostly Cloudy
6:51 AM 51.1 °F 48.0 °F 89% 29.98 in 2.5 mi Calm Calm - N/A   Mostly Cloudy
6:56 AM 50.0 °F 46.4 °F 87% 29.98 in 3.0 mi NNW 3.5 mph - N/A   Mostly Cloudy
7:09 AM 51.8 °F 42.8 °F 71% 29.98 in 3.0 mi Calm Calm - N/A   Haze
7:51 AM 54.0 °F 43.0 °F 66% 30.01 in 6.0 mi North 3.5 mph - N/A   Haze
8:51 AM 59.0 °F 43.0 °F 55% 30.02 in 8.0 mi SSE 4.6 mph - N/A   Mostly Cloudy
9:51 AM 61.0 °F 52.0 °F 72% 30.02 in 6.0 mi South 3.5 mph - N/A   Haze
10:51 AM 64.0 °F 48.0 °F 56% 30.01 in 10.0 mi Calm Calm - N/A   Scattered Clouds
11:51 AM 66.0 °F 48.9 °F 54% 29.99 in 10.0 mi SSW 5.8 mph - N/A   Scattered Clouds
12:51 PM 68.0 °F 48.0 °F 49% 29.96 in 10.0 mi SW 5.8 mph - N/A   Scattered Clouds
1:51 PM 68.0 °F 50.0 °F 52% 29.94 in 10.0 mi Variable 5.8 mph - N/A   Partly Cloudy
2:51 PM 69.1 °F 50.0 °F 51% 29.94 in 10.0 mi West 5.8 mph - N/A   Partly Cloudy
3:51 PM 66.9 °F 44.1 °F 44% 29.94 in 10.0 mi SW 5.8 mph - N/A   Scattered Clouds
4:51 PM 64.0 °F 53.1 °F 67% 29.96 in 10.0 mi South 6.9 mph - N/A   Scattered Clouds
5:47 PM 62.6 °F 55.4 °F 77% 29.98 in 10.0 mi SSW 6.9 mph - N/A   Mostly Cloudy
5:51 PM 62.1 °F 54.0 °F 75% 29.98 in 10.0 mi South 8.1 mph - N/A   Mostly Cloudy
6:51 PM 62.1 °F 54.0 °F 75% 29.99 in 10.0 mi South 3.5 mph - N/A   Mostly Cloudy
7:22 PM 62.6 °F 53.6 °F 72% 29.99 in 10.0 mi SSE 5.8 mph - N/A   Mostly Cloudy
7:51 PM 62.1 °F 53.1 °F 72% 30.00 in 10.0 mi Variable 5.8 mph - N/A   Mostly Cloudy
8:06 PM 60.8 °F 53.6 °F 77% 30.00 in 10.0 mi South 4.6 mph - N/A   Mostly Cloudy
8:34 PM 60.8 °F 53.6 °F 77% 30.00 in 10.0 mi South 4.6 mph - N/A   Scattered Clouds
8:51 PM 61.0 °F 53.1 °F 75% 30.01 in 10.0 mi SSE 3.5 mph - N/A   Scattered Clouds
9:51 PM 60.1 °F 52.0 °F 75% 30.01 in 9.0 mi Calm Calm - N/A   Scattered Clouds
10:45 PM 59.0 °F 51.8 °F 77% 30.02 in 8.0 mi North 3.5 mph - N/A   Mostly Cloudy
10:51 PM 59.0 °F 52.0 °F 78% 30.02 in 8.0 mi NNE 3.5 mph - N/A   Mostly Cloudy
11:38 PM 59.0 °F 51.8 °F 77% 30.02 in 7.0 mi Calm Calm - N/A   Scattered Clouds
11:51 PM 59.0 °F 51.1 °F 75% 30.02 in 7.0 mi Calm Calm - N/A   Partly Cloudy